星链-31569 (STARLINK-31569 )

导读 | 星芒AI

STARLINK-31569 是 SpaceX Starlink 项目中的一颗低轨通信卫星,属于第三代 Starlink 卫星(v1.5)。该卫星于2023年发射,旨在为全球提供高速互联网服务。它运行在约540公里高的近地轨道,具备先进通信设备和激光链路,以提升网络连接效率和覆盖范围。Starlink 卫星群致力于改善偏远地区的网络接入,支持全球用户实现低延迟、高带宽的互联网体验。

基本信息
目录编号:
59857
目录名称:
STARLINK-31569
国际标识:
2024-097Y
轨道中心:
EARTH
卫星名称:
星链-31569
卫星全名:
星链-31569 (STARLINK-31569 )
卫星状态:
在轨 (已飞行527 天)
发射日期:
2024-05-23 UTC
国别 :
美国 (US)
星等 :
--
轨道信息
数据来源 国际轨道数据
星历时间: 2025-11-01T00:00:00+0800
1天前
查看轨道信息
半长轴: 6861.176km
偏心率: 0.0001172
轨道倾角: 43.003°
近地点辐角 265.232°
升交点赤经 283.081°
平近点角 94.840°
近地点: 482.236km
远地点: 483.846km
周期: 94.267分钟
每日圈数: 15.275837
详细信息
固有亮度:
5
最大亮度:
1.5
卫星平台:
Starlink v2.0 mini
覆盖范围:
全球
运营商:
太空探索技术公司
运营商所在国:
美国
制造商(研发单位):
太空探索技术公司
制造商所在国:
美国
使用方式:
暂无
卫星简介
星链(Starlink)计划是由太空探索技术公司(SpaceX)提出的一个巨型低轨卫星互联网星座项目,计划在2019年至2024年间在太空搭建由约1.2万颗卫星组成的“星链”网络,其中1584颗将部署在地球上空550千米处的近地轨道,并从2020年开始工作。该卫星仍在工作。
2D轨道图
3D轨道图
轨道高度分析图
轨道倾角分析图
轨道综合分析图
查看轨道综合分析图